sat.trackr.live / text

‹ back to catalog

STARLINK-11504 [DTC]

NORAD 62274 · 2024-237H

PAYLOAD ACTIVE UNKNOWN

§ Identity

Operator
Country
US
Launch date
2024-12-08
Launch site
AFETR
Launch vehicle
Mass (kg)
RCS (m²)

Purposes: comms

External: N2YO · Heavens-Above · Gunter

§ Orbital elements

Epoch: 2026-09-21T10:06:07.338528Z

Period
91.67 min
Inclination
43.0003°
Eccentricity
0.0001117
Mean motion
15.70824060 rev/d
Perigee alt
355.8 km
Apogee alt
357.3 km
Semi-major
6,734.7 km
B*
1.0624e-3
RAAN
316.9916°
Arg perigee
261.0270°
Mean anomaly
99.0471°
Rev number
10,378

§ Raw data

STARLINK-11504 [DTC]1 62274U 24237H   26264.42091827  .00138060  00000+0  10624-2 0  99942 62274  43.0003 316.9916 0001117 261.0270  99.0471 15.70824060103788

JSON: /api/v1/satellites/62274 · /tle

For live sub-satellite position, see the globe view (requires WebGL).

§ Visibility from observer

Set your observer location to see the next 7 days of passes ≥ 10°. The values pass through the URL so the page stays shareable.

No JS? Fill the form by hand. The geolocation button needs JavaScript.